This is the latest recevied weather packets stored in our database for station/object K5NCO. If no packets are shown the sender has not sent any weather packets the latest 10 day(s).
| Time | Temp. | Humidity | Pressure | Rain* | Wind** | Luminosity | Snow |
|---|---|---|---|---|---|---|---|
| 1778015916 | 28.33° C | 72% | 1007.8 hPa | 0 mm | - | 499 W/m² | - |
| 1778015615 | 27.78° C | 74% | 1007.9 hPa | 0 mm | - | 521 W/m² | - |
| 1778015311 | 27.78° C | 74% | 1007.7 hPa | 0 mm | - | 568 W/m² | - |
| 1778015008 | 27.78° C | 73% | 1007.8 hPa | 0 mm | - | 555 W/m² | - |
| 1778014704 | 27.78° C | 75% | 1008 hPa | 0 mm | - | 461 W/m² | - |
| 1778014403 | 27.78° C | 74% | 1008.1 hPa | 0 mm | - | 472 W/m² | - |
| 1778014099 | 27.78° C | 74% | 1008 hPa | 0 mm | - | 600 W/m² | - |
| 1778013797 | 27.22° C | 76% | 1007.9 hPa | 0 mm | - | 704 W/m² | - |
| 1778013494 | 27.22° C | 75% | 1008.2 hPa | 0 mm | - | 459 W/m² | - |
| 1778013191 | 27.78° C | 76% | 1008.2 hPa | 0 mm | - | 371 W/m² | - |
| 1778012887 | 27.78° C | 75% | 1008.5 hPa | 0 mm | - | 607 W/m² | - |
| 1778012583 | 27.22° C | 76% | 1008.4 hPa | 0 mm | - | 608 W/m² | - |
| 1778012280 | 27.78° C | 76% | 1008.7 hPa | 0 mm | - | 679 W/m² | - |
| 1778011977 | 27.78° C | 75% | 1008.8 hPa | 0 mm | - | 617 W/m² | - |
| 1778011676 | 27.78° C | 76% | 1008.7 hPa | 0 mm | - | 609 W/m² | - |
| 1778011372 | 27.22° C | 76% | 1008.5 hPa | 0 mm | - | 627 W/m² | - |
| 1778011068 | 27.78° C | 74% | 1008.9 hPa | 0 mm | - | 686 W/m² | - |
| 1778010766 | 27.78° C | 76% | 1009 hPa | 0 mm | - | 449 W/m² | - |
| 1778010462 | 27.22° C | 77% | 1008.9 hPa | 0 mm | - | 758 W/m² | - |
| 1778010159 | 27.22° C | 77% | 1009.2 hPa | 0 mm | - | 568 W/m² | - |
| 1778009855 | 27.22° C | 76% | 1009.4 hPa | 0 mm | - | 845 W/m² | - |
| 1778009553 | 26.67° C | 77% | 1009.4 hPa | 0 mm | - | 430 W/m² | - |
| 1778009251 | 26.67° C | 77% | 1009.1 hPa | 0 mm | - | 315 W/m² | - |
| 1778008948 | 26.67° C | 78% | 1009.2 hPa | 0 mm | - | 364 W/m² | - |
| 1778008646 | 26.11° C | 79% | 1009.2 hPa | 0 mm | - | 481 W/m² | - |
* Rain latest hour (hover to see other rain measurements)
** Current wind speed in m/s (hover to see current wind gust speed)